GW0484 Weather Reports


Display with metric or nautical units.
time (UTC)temp
F
wind
direction
speed
MPH
gust
MPH
rain 1hr
in
rain 24hr
in
rain mn
in
humidity
%
barometer
mb
20260906162049 56 133 0.0 0.0 0.00 0.00 0.00 92 1014.3
20260906161544 56 126 0.0 0.0 0.00 0.00 0.00 93 1014.5
20260906161043 56 125 1.0 1.0 0.00 0.00 0.00 93 1014.1
20260906160542 56 133 0.0 1.0 0.00 0.00 0.00 93 1014.1
20260906160041 55 124 0.0 0.0 0.00 0.00 0.00 93 1014.3
20260906155538 55 131 0.0 1.0 0.00 0.00 0.00 93 1014.2
20260906155034 55 79 2.0 3.0 0.00 0.00 0.00 94 1014.5
20260906154529 55 133 2.0 3.0 0.00 0.00 0.00 94 1014.5
20260906154028 55 130 2.0 3.0 0.00 0.00 0.00 94 1014.6
20260906153527 55 135 2.0 2.0 0.00 0.00 0.00 93 1014.6
20260906153017 54 151 2.0 2.0 0.00 0.00 0.00 93 1014.7
20260906152511 55 314 4.0 6.0 0.00 0.00 0.00 93 1014.7
20260906152010 55 324 9.0 11.0 0.00 0.00 0.00 92 1014.9
20260906151506 55 141 6.0 8.0 0.00 0.00 0.00 91 1015.2
20260906151001 55 186 7.0 14.0 0.00 0.00 0.00 90 1015.0
20260906150456 56 181 7.0 10.0 0.00 0.00 0.00 90 1015.2
20260906145956 56 304 7.0 9.0 0.00 0.00 0.00 90 1015.0
20260906145455 56 250 5.0 7.0 0.00 0.00 0.00 90 1015.3
20260906144949 57 132 1.0 1.0 0.00 0.00 0.00 89 1014.7
20260906144444 57 6 5.0 11.0 0.00 0.00 0.00 89 1015.2
20260906143940 58 289 9.0 10.0 0.00 0.00 0.00 89 1015.5
20260906143435 59 240 9.0 10.0 0.00 0.00 0.00 89 1015.4
20260906142931 59 265 4.0 6.0 0.00 0.00 0.00 90 1015.3
20260906142430 59 269 5.0 5.0 0.00 0.00 0.00 89 1015.0
20260906141926 59 166 1.0 1.0 0.00 0.00 0.00 89 1014.9
20260906141420 59 127 0.0 0.0 0.00 0.00 0.00 90 1014.7
20260906140914 59 66 2.0 2.0 0.00 0.00 0.00 90 1014.5
20260906140408 59 102 1.0 1.0 0.00 0.00 0.00 90 1014.6
20260906135906 59 129 0.0 0.0 0.00 0.00 0.00 90 1014.9
20260906135400 59 126 0.0 1.0 0.00 0.00 0.00 90 1014.9
20260906134856 59 83 2.0 2.0 0.00 0.00 0.00 90 1015.0
20260906134351 59 118 1.0 1.0 0.00 0.00 0.00 90 1014.6
20260906133847 58 97 2.0 3.0 0.00 0.00 0.00 90 1014.8
20260906133342 58 44 5.0 5.0 0.00 0.00 0.00 90 1014.5
20260906132838 58 31 3.0 3.0 0.00 0.00 0.00 90 1014.3
20260906132332 58 126 0.0 1.0 0.00 0.00 0.00 91 1014.3
20260906131828 58 117 4.0 7.0 0.00 0.00 0.00 91 1014.5
20260906131323 57 310 7.0 8.0 0.00 0.00 0.00 91 1014.6
20260906130819 58 270 6.0 7.0 0.00 0.00 0.00 91 1014.8
20260906130319 57 127 0.0 0.0 0.00 0.00 0.00 91 1014.5
20260906125818 57 35 3.0 3.0 0.00 0.00 0.00 91 1014.3
20260906125315 57 47 6.0 7.0 0.00 0.00 0.00 91 1014.6
20260906124810 57 57 4.0 5.0 0.00 0.00 0.00 91 1014.6
20260906124306 57 38 4.0 5.0 0.00 0.00 0.00 91 1014.8
20260906123805 57 17 7.0 9.0 0.00 0.00 0.00 91 1014.6
20260906123300 57 1 4.0 6.0 0.00 0.00 0.00 91 1014.7
20260906122800 57 17 5.0 7.0 0.00 0.00 0.00 91 1014.6
20260906122255 57 3 5.0 8.0 0.00 0.00 0.00 91 1014.7
20260906121752 57 6 5.0 7.0 0.00 0.00 0.00 91 1014.2
20260906121248 57 342 5.0 7.0 0.00 0.00 0.00 91 1014.3
20260906120743 57 24 4.0 6.0 0.00 0.00 0.00 92 1014.3
20260906120240 57 12 4.0 6.0 0.00 0.00 0.00 92 1014.2
20260906115735 57 134 1.0 2.0 0.00 0.00 0.00 92 1014.5
20260906115230 57 145 1.0 2.0 0.00 0.00 0.00 92 1014.5
20260906114729 57 127 1.0 2.0 0.00 0.00 0.00 92 1014.5
20260906114224 57 142 1.0 2.0 0.00 0.00 0.00 91 1014.3
20260906113720 57 336 4.0 6.0 0.00 0.00 0.00 91 1014.8
20260906113219 57 88 4.0 5.0 0.00 0.00 0.00 91 1014.7
20260906112718 57 11 2.0 3.0 0.00 0.00 0.00 90 1014.8
20260906112216 57 97 4.0 6.0 0.00 0.00 0.00 90 1014.6
20260906111715 57 51 5.0 6.0 0.00 0.00 0.00 90 1014.7
20260906111209 57 103 3.0 3.0 0.00 0.00 0.00 89 1014.7
20260906110704 57 4 5.0 8.0 0.00 0.00 0.00 90 1014.8
20260906110200 57 17 4.0 5.0 0.00 0.00 0.00 89 1014.6
20260906105653 57 45 4.0 7.0 0.00 0.00 0.00 89 1014.6
20260906105150 57 35 7.0 8.0 0.00 0.00 0.00 89 1014.7
20260906104649 57 0 4.0 6.0 0.00 0.00 0.00 89 1014.8
20260906104143 57 11 3.0 5.0 0.00 0.00 0.00 89 1014.7
20260906103641 57 38 6.0 8.0 0.00 0.00 0.00 89 1014.8
20260906103137 57 27 7.0 8.0 0.00 0.00 0.00 89 1014.9
20260906102631 57 352 9.0 11.0 0.00 0.00 0.00 89 1014.9
20260906102125 57 93 7.0 8.0 0.00 0.00 0.00 89 1014.9
20260906101620 57 50 8.0 9.0 0.00 0.00 0.00 89 1014.9
20260906101115 57 359 8.0 9.0 0.00 0.00 0.00 89 1014.9
20260906100611 57 20 3.0 5.0 0.00 0.00 0.00 89 1015.0
20260906100110 57 21 4.0 7.0 0.00 0.00 0.00 89 1015.1
20260906095610 57 183 4.0 5.0 0.00 0.00 0.00 88 1014.9
20260906095106 57 154 3.0 6.0 0.00 0.00 0.00 88 1014.9
20260906094604 57 121 3.0 6.0 0.00 0.00 0.00 88 1014.9
20260906094101 57 105 2.0 3.0 0.00 0.00 0.00 88 1014.8
20260906093556 58 18 4.0 6.0 0.00 0.00 0.00 88 1014.9
20260906093051 58 265 5.0 7.0 0.00 0.00 0.00 88 1014.6
20260906092546 59 22 5.0 9.0 0.00 0.00 0.00 87 1014.8
20260906092041 59 16 8.0 11.0 0.00 0.00 0.00 86 1014.8
20260906091537 59 1 9.0 15.0 0.00 0.00 0.00 86 1014.8
20260906091033 59 12 5.0 7.0 0.00 0.00 0.00 86 1015.0
20260906090528 58 258 7.0 9.0 0.00 0.00 0.00 87 1015.0
20260906090023 57 320 7.0 9.0 0.00 0.00 0.00 89 1014.9
20260906085522 58 126 1.0 1.0 0.00 0.00 0.00 90 1015.1
20260906085021 58 136 1.0 2.0 0.00 0.00 0.00 89 1015.2
20260906084516 58 109 1.0 1.0 0.00 0.00 0.00 89 1015.1
20260906084015 58 196 1.0 2.0 0.00 0.00 0.00 88 1015.4
20260906083511 58 104 2.0 5.0 0.00 0.00 0.00 87 1015.7
20260906083010 58 30 6.0 9.0 0.00 0.00 0.00 87 1015.5
20260906082505 58 13 9.0 14.0 0.00 0.00 0.00 87 1015.2
20260906082001 58 6 7.0 9.0 0.00 0.00 0.00 87 1015.8
20260906081456 58 147 4.0 6.0 0.00 0.00 0.00 87 1015.9
20260906080952 58 21 5.0 7.0 0.00 0.00 0.00 87 1015.5
20260906080448 58 139 1.0 1.0 0.00 0.00 0.00 87 1015.5
20260906075943 58 144 3.0 5.0 0.00 0.00 0.00 88 1015.5
20260906075438 57 345 1.0 2.0 0.00 0.00 0.00 88 1015.5
20260906074933 57 56 6.0 8.0 0.00 0.00 0.00 89 1015.5
20260906074427 57 85 3.0 3.0 0.00 0.00 0.00 89 1015.7
20260906073926 57 347 2.0 5.0 0.00 0.00 0.00 89 1015.7
20260906073421 57 276 4.0 5.0 0.00 0.00 0.00 90 1015.5
20260906072917 57 267 3.0 3.0 0.00 0.00 0.00 90 1015.7
20260906072412 56 80 3.0 3.0 0.00 0.00 0.00 91 1015.1
20260906071908 56 113 0.0 0.0 0.00 0.00 0.00 91 1015.7
20260906071404 56 129 0.0 0.0 0.00 0.00 0.00 91 1015.9
20260906070900 56 127 0.0 0.0 0.00 0.00 0.00 90 1015.7
20260906070355 56 117 0.0 1.0 0.00 0.00 0.00 90 1016.2
20260906065851 57 358 3.0 3.0 0.00 0.00 0.00 89 1015.7
20260906065345 57 13 3.0 3.0 0.00 0.00 0.00 89 1015.7
20260906064840 57 15 5.0 7.0 0.00 0.00 0.00 89 1015.8
20260906064337 57 127 0.0 1.0 0.00 0.00 0.00 89 1016.4
20260906063837 57 135 2.0 3.0 0.00 0.00 0.00 88 1016.3
20260906063332 57 284 4.0 5.0 0.00 0.00 0.00 88 1016.5
20260906062827 58 230 5.0 6.0 0.00 0.00 0.00 89 1016.9
20260906062326 58 291 6.0 7.0 0.00 0.00 0.00 88 1016.6
20260906061822 57 102 1.0 1.0 0.00 0.00 0.00 89 1016.5
20260906061318 57 4 3.0 7.0 0.00 0.00 0.00 89 1016.3
20260906060813 57 20 1.0 2.0 0.00 0.00 0.00 89 1016.0
20260906060311 57 125 1.0 2.0 0.00 0.00 0.00 89 1016.1
20260906055806 57 354 1.0 1.0 0.00 0.11 0.11 90 1016.3
20260906055301 57 95 1.0 1.0 0.00 0.11 0.11 89 1016.2
20260906054756 57 134 0.0 1.0 0.00 0.11 0.11 89 1016.2
20260906054252 57 279 1.0 2.0 0.00 0.11 0.11 88 1016.1
20260906053748 57 21 4.0 9.0 0.00 0.11 0.11 87 1016.2
20260906053244 57 357 10.0 13.0 0.00 0.11 0.11 87 1015.9
20260906052738 57 28 7.0 10.0 0.00 0.11 0.11 87 1015.7
20260906052235 57 2 10.0 14.0 0.00 0.11 0.11 87 1015.8
20260906051732 57 355 5.0 7.0 0.00 0.11 0.11 87 1015.5
20260906051231 57 10 10.0 11.0 0.00 0.11 0.11 87 1015.7
20260906050727 57 22 11.0 14.0 0.00 0.11 0.11 87 1015.7
20260906050222 57 28 6.0 8.0 0.00 0.11 0.11 87 1015.8
20260906045720 57 352 8.0 11.0 0.00 0.11 0.11 88 1015.7
20260906045216 57 51 5.0 7.0 0.17 0.11 0.11 87 1015.7
20260906044711 58 14 7.0 10.0 0.17 0.11 0.11 86 1015.7
20260906044206 58 67 10.0 14.0 0.05 0.09 0.09 83 1015.8
20260906043702 58 358 7.0 10.0 0.00 0.08 0.08 85 1015.9
20260906043158 58 138 0.0 0.0 0.00 0.08 0.08 85 1016.3
20260906042657 58 163 3.0 5.0 0.00 0.08 0.08 84 1016.0
20260906042151 58 6 8.0 14.0 0.00 0.08 0.08 85 1015.3
20260906041647 58 346 5.0 9.0 0.00 0.08 0.08 84 1015.1
20260906041142 58 333 11.0 13.0 0.00 0.08 0.08 83 1015.0
20260906040637 58 354 9.0 16.0 0.00 0.08 0.08 83 1014.7
20260906040133 58 17 7.0 13.0 0.00 0.08 0.08 84 1014.9
20260906035628 58 354 7.0 11.0 0.00 0.08 0.08 85 1014.8
20260906035124 58 69 8.0 13.0 0.00 0.08 0.08 84 1014.8
20260906034623 58 144 5.0 7.0 0.00 0.08 0.08 85 1015.1
20260906034118 58 348 6.0 9.0 0.00 0.08 0.08 84 1015.2
20260906033614 58 12 5.0 9.0 0.00 0.08 0.08 85 1015.2
20260906033108 57 184 7.0 11.0 0.00 0.08 0.08 85 1015.1
20260906032605 58 135 5.0 11.0 0.00 0.08 0.08 85 1015.2
20260906032100 58 355 3.0 9.0 0.31 0.08 0.08 85 1015.8
20260906031555 60 317 3.0 5.0 0.31 0.08 0.08 82 1015.4
20260906031051 62 40 4.0 6.0 0.00 0.03 0.03 69 1015.5
20260906030550 62 132 1.0 2.0 0.00 0.03 0.03 68 1016.5
20260906030049 62 14 5.0 7.0 0.00 0.03 0.03 68 1015.5
20260906025544 62 11 10.0 13.0 0.00 0.03 0.03 68 1014.6
20260906025042 62 11 13.0 17.0 0.00 0.03 0.03 68 1014.1
20260906024537 62 12 15.0 22.0 0.00 0.03 0.03 68 1014.0
20260906024032 62 16 19.0 22.0 0.00 0.03 0.03 68 1013.7
20260906023528 62 8 15.0 20.0 0.00 0.03 0.03 68 1013.9
20260906023022 62 6 13.0 14.0 0.00 0.03 0.03 68 1014.0
20260906022518 62 18 17.0 20.0 0.00 0.03 0.03 67 1013.7
20260906022013 63 25 18.0 20.0 0.00 0.03 0.03 67 1013.7
20260906021509 63 12 13.0 14.0 0.00 0.03 0.03 66 1013.8
20260906021003 63 14 15.0 18.0 0.00 0.03 0.03 66 1013.8
20260906020502 63 4 15.0 18.0 0.00 0.03 0.03 66 1013.7
20260906020001 64 21 15.0 17.0 0.00 0.03 0.03 65 1013.7
20260906015501 64 11 10.0 11.0 0.00 0.03 0.03 64 1013.8
20260906015001 65 12 14.0 15.0 0.00 0.03 0.03 63 1013.6
20260906014455 65 19 13.0 14.0 0.00 0.03 0.03 63 1013.6
20260906013951 65 357 11.0 13.0 0.00 0.03 0.03 62 1013.8
20260906013447 66 11 11.0 13.0 0.00 0.03 0.03 61 1013.5
20260906012942 66 358 5.0 8.0 0.00 0.03 0.03 60 1013.7
20260906012437 66 24 8.0 9.0 0.00 0.03 0.03 59 1013.6
20260906011936 67 4 8.0 10.0 0.00 0.03 0.03 59 1013.8
20260906011432 67 14 7.0 9.0 0.00 0.03 0.03 58 1013.7
20260906010927 67 25 10.0 11.0 0.00 0.03 0.03 58 1013.7
20260906010422 67 2 11.0 13.0 0.00 0.03 0.03 58 1013.9
20260906005918 68 40 12.0 14.0 0.00 0.03 0.03 56 1013.9
20260906005418 68 8 14.0 16.0 0.00 0.03 0.03 56 1013.7
20260906004916 68 25 12.0 14.0 0.00 0.03 0.03 55 1013.8
20260906004411 69 5 11.0 13.0 0.00 0.03 0.03 55 1013.5
20260906003907 69 2 13.0 15.0 0.00 0.03 0.03 54 1013.8
20260906003402 69 33 9.0 11.0 0.00 0.03 0.03 54 1013.6
20260906002857 70 3 10.0 11.0 0.00 0.03 0.03 54 1013.6
20260906002356 71 4 10.0 11.0 0.00 0.03 0.03 52 1013.9
20260906001852 71 351 13.0 15.0 0.00 0.03 0.03 50 1013.8
20260906001348 71 45 10.0 14.0 0.00 0.03 0.03 50 1013.8
20260906000842 72 24 8.0 9.0 0.00 0.03 0.03 46 1013.9
20260906000337 72 33 10.0 13.0 0.00 0.03 0.03 47 1013.8
20260905235837 72 358 13.0 15.0 0.00 0.03 0.03 47 1013.7
20260905235331 72 26 8.0 9.0 0.00 0.03 0.03 47 1013.6
20260905234827 73 37 4.0 6.0 0.00 0.03 0.03 46 1013.8
20260905234322 72 25 7.0 8.0 0.00 0.03 0.03 46 1014.0
20260905233817 72 46 5.0 6.0 0.00 0.03 0.03 46 1013.9
20260905233312 73 41 11.0 13.0 0.00 0.03 0.03 46 1014.1
20260905232811 73 41 13.0 14.0 0.00 0.03 0.03 47 1014.2
20260905232307 74 5 7.0 8.0 0.00 0.03 0.03 46 1013.9
20260905231803 74 12 3.0 3.0 0.00 0.03 0.03 45 1013.9
20260905231258 75 45 9.0 10.0 0.00 0.03 0.03 45 1013.9
20260905230754 77 40 10.0 13.0 0.00 0.03 0.03 43 1014.0
20260905230252 77 140 1.0 2.0 0.00 0.03 0.03 37 1013.9
20260905225751 75 136 1.0 1.0 0.00 0.03 0.03 40 1013.9
20260905225247 75 37 3.0 5.0 0.00 0.03 0.03 38 1013.8
20260905224746 75 40 3.0 7.0 0.00 0.03 0.03 38 1013.7
20260905224242 76 48 3.0 3.0 0.00 0.03 0.03 37 1013.7
20260905223737 74 142 0.0 1.0 0.00 0.03 0.03 39 1013.9
20260905223234 75 50 8.0 9.0 0.00 0.03 0.03 38 1013.9
20260905222730 76 316 4.0 8.0 0.00 0.03 0.03 37 1013.7
20260905222228 76 85 1.0 2.0 0.00 0.03 0.03 38 1014.1
20260905221725 75 127 0.0 1.0 0.00 0.03 0.03 37 1014.0
20260905221221 75 143 1.0 1.0 0.00 0.03 0.03 38 1014.0
20260905220717 75 133 1.0 1.0 0.00 0.03 0.03 39 1014.0
20260905220213 75 80 3.0 3.0 0.00 0.03 0.03 39 1014.1
20260905215712 76 169 2.0 2.0 0.00 0.03 0.03 38 1014.2
20260905215208 75 88 2.0 2.0 0.00 0.03 0.03 39 1014.5
20260905214704 74 315 4.0 5.0 0.00 0.03 0.03 39 1014.3
20260905214159 74 63 3.0 3.0 0.00 0.03 0.03 39 1014.5
20260905213654 75 75 4.0 6.0 0.00 0.03 0.03 39 1014.5
20260905213150 73 154 2.0 3.0 0.00 0.03 0.03 39 1014.3
20260905212645 74 313 2.0 5.0 0.00 0.03 0.03 41 1014.5
20260905212144 75 152 4.0 6.0 0.00 0.03 0.03 39 1014.3
20260905211639 75 106 1.0 2.0 0.00 0.03 0.03 40 1014.5
20260905211134 74 109 2.0 3.0 0.00 0.03 0.03 40 1014.6
20260905210631 73 92 2.0 2.0 0.00 0.03 0.03 41 1014.6
20260905210126 72 59 3.0 5.0 0.00 0.03 0.03 42 1014.6
20260905205625 73 73 3.0 3.0 0.00 0.03 0.03 41 1014.8
20260905205124 73 311 4.0 7.0 0.00 0.03 0.03 39 1014.6
20260905204624 75 3 3.0 6.0 0.00 0.03 0.03 40 1014.8
20260905204120 73 145 3.0 3.0 0.00 0.03 0.03 41 1015.0
20260905203619 73 20 4.0 5.0 0.00 0.03 0.03 41 1014.8
20260905203115 74 313 4.0 5.0 0.00 0.03 0.03 40 1014.5
20260905202610 73 131 1.0 2.0 0.00 0.03 0.03 42 1014.8
20260905202105 71 77 3.0 5.0 0.00 0.03 0.03 43 1014.9
20260905201601 71 27 4.0 5.0 0.00 0.03 0.03 43 1014.9
20260905201100 73 77 5.0 6.0 0.00 0.03 0.03 41 1014.9
20260905200556 72 112 0.0 1.0 0.00 0.03 0.03 45 1014.7
20260905200056 72 75 3.0 5.0 0.00 0.03 0.03 42 1015.1
20260905195550 70 132 1.0 2.0 0.00 0.03 0.03 45 1014.9
20260905195046 70 250 3.0 3.0 0.00 0.03 0.03 45 1014.9
20260905194545 72 322 9.0 10.0 0.00 0.03 0.03 44 1014.8
20260905194044 73 149 2.0 3.0 0.00 0.03 0.03 42 1015.1
20260905193539 71 135 0.0 0.0 0.00 0.03 0.03 45 1015.0
20260905193035 71 222 2.0 2.0 0.00 0.03 0.03 43 1015.1
20260905192530 71 284 5.0 8.0 0.00 0.03 0.03 45 1015.0
20260905192026 72 112 1.0 2.0 0.00 0.03 0.03 46 1015.2
20260905191525 71 124 1.0 2.0 0.00 0.03 0.03 47 1015.2
20260905191024 71 72 0.0 1.0 0.00 0.03 0.03 47 1015.3
20260905190522 71 61 1.0 3.0 0.00 0.03 0.03 45 1015.2
20260905190016 70 34 5.0 6.0 0.00 0.03 0.03 45 1015.4
20260905185515 70 175 4.0 5.0 0.00 0.03 0.03 46 1015.4
20260905185015 71 292 8.0 10.0 0.00 0.03 0.03 45 1015.7
20260905184510 69 333 4.0 6.0 0.00 0.03 0.03 49 1015.5
20260905184008 71 321 7.0 8.0 0.00 0.03 0.03 45 1015.5
20260905183508 71 7 2.0 3.0 0.00 0.03 0.03 49 1015.7
20260905183003 71 4 4.0 8.0 0.00 0.03 0.03 48 1015.7
20260905182503 69 27 0.0 1.0 0.00 0.03 0.03 52 1015.8
20260905181957 69 238 5.0 6.0 0.00 0.03 0.03 52 1015.8
20260905181453 69 151 6.0 8.0 0.00 0.03 0.03 53 1015.5
20260905180952 69 336 4.0 7.0 0.00 0.03 0.03 49 1016.0
20260905180446 70 301 5.0 6.0 0.00 0.03 0.03 54 1015.5
20260905175942 71 124 4.0 7.0 0.00 0.03 0.03 53 1015.8
20260905175441 71 146 1.0 1.0 0.00 0.03 0.03 50 1015.8
20260905174937 69 92 1.0 2.0 0.00 0.03 0.03 53 1016.1
20260905174432 69 173 5.0 9.0 0.00 0.03 0.03 52 1015.9
20260905173927 69 236 4.0 5.0 0.00 0.03 0.03 53 1015.7
20260905173424 69 108 2.0 2.0 0.00 0.03 0.03 53 1015.9
20260905172919 70 126 0.0 0.0 0.00 0.03 0.03 52 1016.0
20260905172417 68 123 1.0 1.0 0.00 0.03 0.03 56 1015.9
20260905171913 69 352 4.0 5.0 0.00 0.03 0.03 53 1015.5
20260905171409 68 144 1.0 2.0 0.00 0.03 0.03 57 1016.0
20260905170905 68 138 2.0 2.0 0.00 0.03 0.03 57 1015.9
20260905170401 68 15 2.0 3.0 0.00 0.03 0.03 58 1016.1
20260905165900 68 130 2.0 2.0 0.00 0.03 0.03 62 1015.8
20260905165355 67 135 0.0 1.0 0.00 0.03 0.03 62 1015.9
20260905164850 66 199 3.0 5.0 0.00 0.03 0.03 66 1016.2
20260905164345 64 131 1.0 2.0 0.00 0.03 0.03 69 1016.0
20260905163840 63 266 4.0 5.0 0.00 0.03 0.03 70 1016.0
20260905163336 62 213 3.0 3.0 0.00 0.03 0.03 74 1016.1
20260905162832 62 272 3.0 5.0 0.00 0.03 0.03 76 1016.0